Regional Weather Roundup
Issued by NWS Sioux Falls, SD

Home | Current Version | Previous Version | Text Only | Print | Product List | Glossary Off
Versions: 1 2 3 4 5 6 7 8 9 10 11 12 13 14 15 16 17 18 19 20 21 22 23 24 25 26 27 28 29 30 31 32 33 34 35 36 37 38 39 40 41 42 43 44 45 46 47 48 49 50

000
ASUS43 KFSD 291302
RWRFSD

WEATHER ROUNDUP FOR SE SOUTH DAKOTA/SW MINNESOTA/NW IOWA
NATIONAL WEATHER SERVICE SIOUX FALLS SD
800 AM CDT TUE JUL 29 2014

NOTE: "FAIR" INDICATES FEW OR NO CLOUDS BELOW 12,000 FEET WITH NO
SIGNIFICANT WEATHER AND OR OBSTRUCTIONS TO VISIBILITY.


SDZ038>040-050-052>070-291400-
SOUTHEAST SOUTH DAKOTA

CITY           SKY/WX    TMP DP  RH WIND       PRES   REMARKS
CHAMBERLAIN    NOT AVBL
HURON          PTSUNNY   58  54  86 CALM      30.23R
MADISON        FAIR      55  55 100 CALM      30.24R
MITCHELL       SUNNY     56  53  90 CALM      30.24R
SIOUX FALLS    MOSUNNY   57  53  86 CALM      30.23R
WINNER         FAIR      60  52  74 CALM      30.24S
YANKTON        SUNNY     57  54  88 N3        30.24R
$$

MNZ071-072-080-081-089-090-097-098-291400-
SOUTHWEST MINNESOTA

CITY           SKY/WX    TMP DP  RH WIND       PRES   REMARKS
FAIRMONT       SUNNY     61  52  72 NW8       30.18S
JACKSON        SUNNY     59  52  77 NW6       30.20S
LUVERNE        SUNNY     57  52  82 CALM      30.23R
MARSHALL       SUNNY     57  52  82 NW6       30.20R
MONTEVIDEO     SUNNY     59  57  94 NW5       30.20S
PIPESTONE      SUNNY     57  52  82 N3        30.22S
REDWOOD FALLS  SUNNY     59  54  83 NW6       30.19R
TRACY          SUNNY     59  55  84 NW5       30.21S
WINDOM         SUNNY     59  55  88 NW5       30.20S
WORTHINGTON    SUNNY     57  54  88 NW6       30.22S
$$

IAZ001>003-012>014-020>022-031-032-NEZ013-014-SDZ071-291400-
NORTHWEST IOWA

CITY           SKY/WX    TMP DP  RH WIND       PRES   REMARKS
CHEROKEE       SUNNY     53  53 100 CALM      30.22R
DENISON        SUNNY     55  55 100 CALM      30.19R
ESTHERVILLE    SUNNY     58  54  86 NW7       30.19R
LE MARS        SUNNY     55  54  94 CALM      30.23R
ORANGE CITY    SUNNY     61  54  77 N3        30.22R
SHELDON        SUNNY     55  54  94 CALM      30.21R
SIOUX CITY     SUNNY     60  57  89 N5        30.23R
SPENCER        SUNNY     57  53  86 NW5       30.20R
STORM LAKE     SUNNY     59  57  94 N5        30.21R
$$

ABBREVIATIONS USED IN REMARKS
   TC - TEMPERATURE IN CELSIUS
  WCI - WIND CHILL INDEX
   HX - HEAT INDEX
  VSB - VISIBILITY




USA.gov is the U.S. government's official web portal to all federal, state and local government web resources and services.